Tracking 18665 objects as of 24-June-2017
HD Live streaming from Space Station
objects crossing your sky now

USA 81

Track USA 81 now!
10-day predictions
USA 81 is classified as:


NORAD ID: 21949
Int'l Code: 1992-023A
Perigee: 792.8 km
Apogee: 795.7 km
Inclination: 85.0 °
Period: 100.6 minutes
Semi major axis: 7165 km
RCS: Unknown
Launch date: April 25, 1992
Source: United States (US)
Launch site: AIR FORCE WESTERN TEST RANGE (AFWTR)
Your satellite tracking list
Your tracking list is empty





NASA's NSSDC Master Catalog

Two Line Element Set (TLE):
1 21949U 92023A   17150.08964354 0.00000030  00000-0  11335-4 0    07
2 21949  85.0117 178.9459 0002000 251.4699 108.5299 14.31383107    05
Source of the keplerian elements: McCants